This demonstration page uses our WeatherBlox Daily Observations layout. Learn more.

39.92423, -83.80882

Hourly Observations for May 30, 2015

Temp ( °F °C ) Dew Point ( °F °C ) Humidity (%) Winds ( mph kmh ) Pressure ( in mb ) Visibility ( mi km ) Precip ( " mm )
12:56 am 00:56 Clear 72 22.2 66 18.8 81 81 S 8 13 30.06 1018 10 16.0934 0 0
1:56 am 01:56 Clear 72 22.2 67 19.4 84 84 S 7 11 30.06 1018 10 16.0934 0 0
2:56 am 02:56 Clear 71 21.6 67 19.4 87 87 S 6 9 30.05 1018 10 16.0934 0 0
3:56 am 03:56 Clear 71 21.6 67 19.4 87 87 S 8 13 30.04 1017 10 16.0934 0 0
4:56 am 04:56 Clear 70 21.1 67 19.4 90 90 SSW 10 17 30.04 1017 10 16.0934 0 0
5:56 am 05:56 Clear 69 20.5 67 19.4 93 93 SSW 8 13 30.05 1018 10 16.0934 0 0
6:56 am 06:56 Sunny 69 20.5 67 19.4 93 93 S 7 11 30.06 1018 9 14.48406 0 0
7:56 am 07:56 Sunny 71 21.6 67 19.4 87 87 S 8 13 30.07 1018 9 14.48406 0 0
8:56 am 08:56 Mostly Sunny 74 23.3 68 20 82 82 SW 13 20 30.08 1019 10 16.0934 0 0
9:56 am 09:56 Partly Cloudy 77 25 69 20.5 76 76 SSW 9 15 30.07 1018 9 14.48406 0 0
10:34 am 10:34 Mostly Cloudy 81 27 70 21 70 70 SSW 10 17 30.03 1017 9 14.48406 0 0
10:56 am 10:56 Mostly Cloudy 80 26.6 69 20.5 69 69 SW 10 17 30.06 1018 9 14.48406 0 0
11:09 am 11:09 Mostly Cloudy 81 27 70 21 70 70 SW 10 17 30.03 1017 9 14.48406 0 0
11:56 am 11:56 Partly Cloudy 83 28.3 68 20 61 61 SSW 15 24 30.05 1018 9 14.48406 0 0
12:56 pm 12:56 Mostly Sunny 84 28.8 67 19.4 57 57 SSW 14 22 30.04 1017 8 12.87472 0 0
1:56 pm 13:56 Mostly Sunny 86 30 66 18.8 51 51 SSW 15 24 30.02 1017 9 14.48406 0 0
2:56 pm 14:56 Mostly Sunny 87 30.5 65 18.3 48 48 S 15 24 29.98 1015 10 16.0934 0 0
3:56 pm 15:56 Mostly Cloudy 85 29.4 65 18.3 51 51 SSW 14 22 29.98 1015 9 14.48406 0 0
4:03 pm 16:03 Mostly Cloudy with Heavy Rain 81 27 70 21 70 70 SW 22 35 29.94 1014 2.5 4.02335 0.04 1.016
4:16 pm 16:16 Mostly Cloudy 73 23 66 19 78 78 W 8 13 29.97 1015 3 4.82802 0.05 1.27
4:33 pm 16:33 Mostly Cloudy 79 26 70 21 74 74 SW 6 9 29.94 1014 9 14.48406 0.05 1.27
4:56 pm 16:56 Mostly Sunny 83 28.3 69 20.5 63 63 S 10 17 29.96 1015 9 14.48406 0.05 1.27
5:56 pm 17:56 Mostly Sunny 83 28.3 67 19.4 59 59 SSW 9 15 29.94 1014 9 14.48406 0 0
6:09 pm 18:09 Partly Cloudy with Nearby Thunderstorms 82 28 66 19 58 58 SSW 13 20 29.94 1014 9 14.48406 0 0
6:18 pm 18:18 Mostly Cloudy with Nearby Thunderstorms 73 23 66 19 78 78 WSW 31 50 30 1016 2.5 4.02335 0 0
6:20 pm 18:20 Mostly Cloudy with Thunderstorms 72 22 66 19 83 83 WSW 28 44 30 1016 1.25 2.011675 0.02 0.508
6:22 pm 18:22 Mostly Cloudy with Heavy Thunderstorms 70 21 66 19 88 88 WSW 28 44 29.97 1015 0.75 1.207005 0.05 1.27
6:26 pm 18:26 Mostly Cloudy with Heavy Thunderstorms 68 20 66 19 94 94 WSW 31 50 29.97 1015 0.25 0.402335 0.17 4.318
6:37 pm 18:37 Cloudy with Heavy Thunderstorms 66 19 64 18 94 94 W 10 17 29.97 1015 0.75 1.207005 0.3 7.62
6:39 pm 18:39 Cloudy with Light Thunderstorms 66 19 64 18 94 94 W 9 15 29.97 1015 1.5 2.41401 0.3 7.62
6:43 pm 18:43 Mostly Cloudy with Light Thunderstorms 68 20 64 18 88 88 W 7 11 29.97 1015 3 4.82802 0.3 7.62
6:56 pm 18:56 Mostly Cloudy with Light Thunderstorms 68 20 65 18.3 90 90 Calm 29.98 1015 4 6.43736 0.31 7.874
7:05 pm 19:05 Mostly Cloudy with Mist and Fog 68 20 64 18 88 88 Calm 29.97 1015 6 9.65604 0 0.0254
7:29 pm 19:29 Mostly Cloudy with Heavy Thunderstorms 70 21 66 19 88 88 SSW 8 13 30 1016 1.25 2.011675 0.09 2.286
7:31 pm 19:31 Mostly Cloudy with Heavy Thunderstorms 70 21 66 19 88 88 S 8 13 29.97 1015 0.75 1.207005 0.12 3.048
7:39 pm 19:39 Mostly Cloudy with Light Thunderstorms 70 21 68 20 94 94 Calm 29.97 1015 1.5 2.41401 0.13 3.302
7:42 pm 19:42 Cloudy with Light Thunderstorms 70 21 68 20 94 94 Calm 29.97 1015 3 4.82802 0.13 3.302
7:56 pm 19:56 Mostly Cloudy with Thunderstorms 70 21.1 69 20.5 96 96 Calm 29.97 1015 8 12.87472 0.13 3.302
8:08 pm 20:08 Partly Cloudy 72 22 68 20 88 88 Calm 29.97 1015 9 14.48406 0 0
8:19 pm 20:19 Mostly Cloudy with Nearby Thunderstorms 72 22 68 20 88 88 S 9 15 29.97 1015 3 4.82802 0.05 1.27
8:42 pm 20:42 Mostly Cloudy with Thunderstorms 70 21 68 20 94 94 W 6 9 29.97 1015 2 3.21868 0.17 4.318
8:56 pm 20:56 Mostly Cloudy 69 20.5 68 20 97 97 Calm 29.97 1015 7 11.26538 0.18 4.572
9:09 pm 21:09 Mostly Cloudy with Light Rain 70 21 70 21 100 100 Calm 29.97 1015 9 14.48406 0 0.0254
9:56 pm 21:56 Mostly Cloudy 69 20.5 69 20.5 100 100 ESE 3 6 29.98 1015 8 12.87472 0 0.0254
10:56 pm 22:56 Mostly Cloudy 68 20 68 20 100 100 NE 3 6 29.98 1015 8 12.87472 0 0
11:56 pm 23:56 Partly Cloudy 68 20 68 20 100 100 ENE 6 9 29.97 1015 7 11.26538 0 0

Powered by AerisWeather